Location: Demmingen
(48.6757°N, 10.4375°E)
Time: 06:01:51
(UTC+00:00)

CZ-2C R/B - Pass Details

Date: 13 August 2024
Orbit: 782 x 869 km, 98.3° (Epoch: 08 September)

Event Time Altitude Azimuth Distance (km) Brightness Sun altitude
Exits shadow 23:32:43 11° 100° (E) 2,387 5.0 -27.0°
Maximum altitude 23:36:15 20° 57° (ENE) 1,854 4.8 -27.0°
Drops below altitude 10° 23:40:03 10° 13° (NNE) 2,442 6.1 -26.9°
Sets 23:42:57 0° 357° (N) 3,363 7.1 -26.9°
